Weather History for Scottsbluff, NE

Change the Weather History Date:

Thursday, April 17, 2014

  Actual Average Record
Temperature  
Mean Temperature 47 °F 47 °F  
Max Temperature 60 °F 62 °F 87 °F (1948)
Min Temperature 33 °F 32 °F 7 °F (1896)
Degree Days  
Heating Degree Days 18 18  
Month to date heating degree days 345 348  
Since 1 July heating degree days 6208 6089  
Cooling Degree Days 0 0  
Month to date cooling degree days 0 0  
Year to date cooling degree days 0 0  
Moisture  
Dew Point 33 °F    
Average Humidity 65    
Maximum Humidity 89    
Minimum Humidity 40    
Precipitation  
Precipitation 0.00 in 0.07 in 1.29 in (1914)
Month to date precipitation 0.09 0.98  
Year to date precipitation 2.54 2.99  
Snow  
Snow 0.00 in 0.20 in 5.70 in (1986)
Month to date snowfall 1.1 3.8  
Since 1 July snowfall 61.5 40.0  
Snow Depth 0.00 in    
Sea Level Pressure  
Sea Level Pressure 30.09 in    
Wind  
Wind Speed 14 mph (SE)    
Max Wind Speed 24 mph    
Max Gust Speed 29 mph    
Visibility 10 miles    
Events      
T = Trace of Precipitation, MM = Missing Value Source: NWS Daily Summary

Daily Weather History Graph

Daily Weather History Graph

Search for Another Location

Airport:

Trip Planner

Search our weather history database for the weather conditions in past years. The results will help you decide how hot, cold, wet, or windy it might be!

Date:

Astronomy

Apr. 17, 2014 Rise Set
Actual Time 6:10 AM MDT 7:37 PM MDT
Civil Twilight 5:41 AM MDT 8:06 PM MDT
Nautical Twilight 5:06 AM MDT 8:42 PM MDT
Astronomical Twilight 4:29 AM MDT 9:19 PM MDT
Moon 10:27 PM MDT (4/17) 7:42 AM MDT (4/17)
Length of Visible Light 14h 25m
Length of Day
13h 26m
Waning Gibbous, 93% of the Moon is Illuminated
Apr 17
Waning Gibbous
Apr 22
Last Quarter
Apr 29
New
May 6
First Quarter
May 14
Full

Hourly Weather History & Observations

Time (MDT) Temp. Windchill Dew Point Humidity Pressure Visibility Wind Dir Wind Speed Gust Speed Precip Events Conditions
12:18 AM 35.1 °F 27.4 °F 30.0 °F 82% 30.16 in 10.0 mi ESE 10.4 mph - N/A   Overcast
12:53 AM 35.1 °F 27.9 °F 30.0 °F 82% 30.17 in 10.0 mi SE 9.2 mph - N/A   Overcast
1:19 AM 35.1 °F 27.9 °F 28.9 °F 78% 30.16 in 10.0 mi ESE 9.2 mph - N/A   Overcast
1:53 AM 34.0 °F 25.5 °F 28.9 °F 82% 30.16 in 10.0 mi ESE 11.5 mph - N/A   Overcast
2:20 AM 34.0 °F 25.5 °F 28.0 °F 79% 30.15 in 10.0 mi ESE 11.5 mph - N/A   Overcast
2:31 AM 34.0 °F 26.0 °F 28.9 °F 82% 30.15 in 9.0 mi ESE 10.4 mph - N/A   Overcast
2:53 AM 34.0 °F 25.5 °F 28.9 °F 82% 30.15 in 10.0 mi ESE 11.5 mph - N/A   Overcast
3:53 AM 34.0 °F 26.0 °F 28.9 °F 82% 30.14 in 10.0 mi ESE 10.4 mph - N/A   Overcast
4:29 AM 33.1 °F 26.1 °F 28.0 °F 82% 30.13 in 10.0 mi SE 8.1 mph - N/A   Overcast
4:53 AM 33.1 °F 25.5 °F 28.9 °F 85% 30.14 in 10.0 mi SE 9.2 mph - N/A   Overcast
5:53 AM 33.1 °F 23.4 °F 28.9 °F 85% 30.15 in 10.0 mi SE 13.8 mph - N/A   Overcast
6:50 AM 33.8 °F 25.8 °F 30.2 °F 87% 30.14 in 9.0 mi SE 10.4 mph - N/A   Overcast
6:53 AM 33.1 °F 25.5 °F 30.0 °F 89% 30.17 in 9.0 mi SE 9.2 mph - N/A   Overcast
7:53 AM 34.0 °F 26.6 °F 30.0 °F 85% 30.20 in 9.0 mi ESE 9.2 mph - N/A   Overcast
8:53 AM 37.0 °F 31.0 °F 32.0 °F 82% 30.20 in 10.0 mi SSE 8.1 mph - N/A   Overcast
9:53 AM 37.9 °F 30.9 °F 33.1 °F 83% 30.20 in 10.0 mi South 10.4 mph - N/A   Overcast
10:53 AM 39.2 °F 32.5 °F 33.8 °F 81% 30.14 in 10.0 mi SE 10.4 mph - N/A   Overcast
11:01 AM 41.0 °F 34.7 °F 33.8 °F 76% 30.14 in 10.0 mi SE 10.4 mph - N/A   Overcast
11:53 AM 46.0 °F 39.9 °F 35.1 °F 66% 30.14 in 10.0 mi SSE 13.8 mph - N/A   Overcast
12:53 PM 50.0 °F - 36.0 °F 59% 30.10 in 10.0 mi SE 13.8 mph - N/A   Scattered Clouds
1:53 PM 55.9 °F - 36.0 °F 47% 30.07 in 10.0 mi SSE 13.8 mph 21.9 mph N/A   Clear
2:53 PM 57.0 °F - 37.0 °F 47% 30.04 in 10.0 mi ESE 16.1 mph 24.2 mph N/A   Clear
3:53 PM 57.9 °F - 37.9 °F 47% 30.01 in 10.0 mi ESE 16.1 mph 27.6 mph N/A   Clear
4:53 PM 59.0 °F - 37.0 °F 44% 29.99 in 10.0 mi ESE 21.9 mph - N/A   Clear
5:53 PM 59.0 °F - 36.0 °F 42% 29.96 in 10.0 mi SE 23.0 mph 28.8 mph N/A   Clear
6:53 PM 57.0 °F - 34.0 °F 42% 29.96 in 10.0 mi ESE 18.4 mph - N/A   Clear
7:53 PM 54.0 °F - 37.0 °F 53% 29.96 in 10.0 mi SE 15.0 mph - N/A   Clear
8:53 PM 50.0 °F - 37.0 °F 61% 29.97 in 10.0 mi ESE 17.3 mph - N/A   Clear
9:53 PM 46.0 °F 39.3 °F 37.0 °F 71% 29.98 in 10.0 mi ESE 16.1 mph - N/A   Clear
10:53 PM 43.0 °F 35.7 °F 36.0 °F 76% 29.96 in 10.0 mi ESE 15.0 mph - N/A   Clear
11:53 PM 48.0 °F - 34.0 °F 58% 29.93 in 10.0 mi SE 10.4 mph - N/A   Clear